Location: ????????
(54.6123°N, 39.2099°E)
Time: 03:17:03
(UTC+00:00)

CZ-2C R/B - Pass Details

Date: 19 May 2025
Orbit: 631 x 693 km, 98.1° (Epoch: 15 June)

Event Time Altitude Azimuth Distance (km) Brightness Sun altitude
Rises 19:56:37 0° 18° (NNE) 2,944 7.9 -13.3°
Reaches altitude 10° 19:58:54 10° 25° (NNE) 2,028 6.9 -13.5°
Maximum altitude 20:03:10 48° 100° (E) 834 4.0 -13.7°
Enters shadow 20:05:43 22° 165° (SSE) 1,383 4.7 -13.8°
